Location: Krakow
(50.0212°N, 19.9423°E)
Time: 07:14:43
(UTC+02:00)

ACS3 Solar Sail - Visible Passes

Search period start: 09 June 2026 00:00
Search period end: 19 June 2026 00:00
Orbit: 877 x 953 km, 97.2° (Epoch: 8 June)

Date Brightness Start Highest point End Pass type
(mag) Time Alt. Az. Time Alt. Az. Time Alt. Az.
9 Jun 1.6 01:19:43 10° NNE 01:25:28 87° ESE 01:28:58 25° SSW visible
9 Jun 3.4 03:03:06 10° NNW 03:07:00 19° WNW 03:10:56 10° W visible
9 Jun 3.4 23:45:42 10° NE 23:49:32 18° E 23:52:43 12° ESE visible
10 Jun 1.6 01:26:43 10° N 01:32:28 83° WNW 01:36:05 24° SSW visible
10 Jun 3.6 03:10:18 10° NNW 03:13:53 17° NW 03:17:29 10° W visible
10 Jun 3.3 23:52:21 10° NE 23:56:36 21° E 23:59:46 14° SE visible
11 Jun 1.7 01:33:41 10° N 01:39:24 73° WNW 01:43:08 23° SSW visible
11 Jun 3.7 03:17:30 10° NNW 03:20:42 15° NW 03:23:55 10° W visible
11 Jun 3.1 23:59:02 10° NE 00:03:35 24° E 00:06:46 15° SE visible
12 Jun 1.8 01:40:36 10° N 01:46:17 65° WNW 01:50:08 21° SSW visible
12 Jun 3.8 03:24:43 10° NNW 03:27:28 14° NW 03:30:13 10° W visible
13 Jun 3.0 00:05:43 10° NNE 00:10:31 27° E 00:13:44 17° SE visible
13 Jun 2.0 01:47:29 10° N 01:53:06 57° WNW 01:57:05 20° SW visible
13 Jun 3.8 03:31:59 10° NNW 03:34:10 12° NW 03:36:21 10° WNW visible
14 Jun 2.8 00:12:22 10° NNE 00:17:24 31° E 00:20:38 19° SE visible
14 Jun 2.2 01:54:19 10° N 01:59:51 50° WNW 02:03:58 18° SW visible
14 Jun 3.9 03:39:26 10° NW 03:40:48 11° NW 03:42:11 10° WNW visible
15 Jun 2.6 00:19:00 10° NNE 00:24:14 35° E 00:27:28 20° SE visible
15 Jun 2.3 02:01:07 10° N 02:06:33 45° WNW 02:10:49 17° SW visible
16 Jun 2.4 00:25:35 10° NNE 00:30:59 39° E 00:34:16 22° SSE visible
16 Jun 2.5 02:07:53 10° N 02:13:12 40° WNW 02:17:36 15° SW visible
17 Jun 2.3 00:32:10 10° NNE 00:37:41 45° E 00:41:01 23° SSE visible
17 Jun 2.7 02:14:36 10° N 02:19:47 36° WNW 02:24:21 13° SW visible
18 Jun 2.1 00:38:42 10° NNE 00:44:20 51° E 00:47:42 24° SSE visible
18 Jun 2.8 02:21:18 10° N 02:26:19 32° WNW 02:31:02 12° WSW visible
